Location: Unspecified
(50.0212°N, 0.0000°E)
Time: 02:29:05
(UTC+00:00)

Meteor 2-3 Rocket - Visible Passes

Search period start: 04 April 2026 00:00
Search period end: 14 April 2026 00:00
Orbit: 845 x 880 km, 81.2° (Epoch: 29 March)

Date Brightness Start Highest point End Pass type
(mag) Time Alt. Az. Time Alt. Az. Time Alt. Az.
4 Apr 4.5 00:49:16 10° NNW 00:53:19 48° N 00:53:19 48° N visible
4 Apr 5.7 02:33:58 10° NW 02:35:34 14° WNW 02:35:34 14° WNW visible
4 Apr 5.8 22:58:47 10° NNE 23:02:19 17° ENE 23:02:35 16° ENE visible
5 Apr 4.5 00:40:44 10° NNW 00:44:51 49° N 00:44:51 49° N visible
5 Apr 5.7 02:25:26 10° NW 02:27:06 15° WNW 02:27:06 15° WNW visible
5 Apr 5.8 22:50:18 10° NNE 22:53:46 16° NE 22:54:08 16° ENE visible
6 Apr 4.4 00:32:14 10° N 00:36:23 50° N 00:36:23 50° N visible
6 Apr 5.7 02:16:53 10° NW 02:18:38 15° WNW 02:18:38 15° WNW visible
6 Apr 5.8 22:41:48 10° NNE 22:45:14 16° NE 22:45:41 16° ENE visible
7 Apr 4.4 00:23:42 10° N 00:27:56 52° N 00:27:56 52° N visible
7 Apr 5.7 02:08:20 10° NW 02:10:11 15° WNW 02:10:11 15° WNW visible
7 Apr 5.8 22:33:19 10° NNE 22:36:42 16° NE 22:37:15 16° ENE visible
8 Apr 4.3 00:15:11 10° N 00:19:30 53° N 00:19:30 53° N visible
8 Apr 5.7 01:59:47 10° NW 02:01:45 15° WNW 02:01:45 15° WNW visible
8 Apr 5.7 22:24:50 10° NNE 22:28:10 16° NE 22:28:49 15° ENE visible
9 Apr 4.3 00:06:40 10° N 00:11:04 55° N 00:11:04 55° N visible
9 Apr 5.7 01:51:14 10° NW 01:53:19 16° WNW 01:53:19 16° WNW visible
9 Apr 5.7 22:16:20 10° NNE 22:19:38 16° NE 22:20:23 15° ENE visible
9 Apr 4.2 23:58:08 10° N 00:02:39 57° N 00:02:39 57° N visible
10 Apr 5.7 01:42:41 10° NW 01:44:54 16° WNW 01:44:54 16° WNW visible
10 Apr 5.7 22:07:51 10° NNE 22:11:06 15° NE 22:11:59 15° ENE visible
10 Apr 4.1 23:49:37 10° N 23:54:14 59° N 23:54:14 59° N visible
11 Apr 5.6 01:34:08 10° NW 01:36:29 17° WNW 01:36:29 17° WNW visible
11 Apr 5.7 21:59:20 10° NNE 22:02:33 15° NE 22:03:34 15° ENE visible
11 Apr 4.1 23:41:06 10° N 23:45:50 62° N 23:45:50 62° N visible
12 Apr 5.6 01:25:35 10° NW 01:28:05 17° WNW 01:28:05 17° WNW visible
12 Apr 5.7 21:50:52 10° NNE 21:54:01 15° NE 21:55:11 14° ENE visible
12 Apr 4.0 23:32:35 10° N 23:37:26 64° NNE 23:37:26 64° NNE visible
13 Apr 5.6 01:17:02 10° NW 01:19:41 17° WNW 01:19:41 17° WNW visible
13 Apr 5.7 21:42:21 10° NNE 21:45:28 15° NE 21:46:47 14° ENE visible
13 Apr 3.9 23:24:04 10° N 23:29:03 67° NNE 23:29:03 67° NNE visible
